Location: Antioch
(38.0049°N, 121.8058°W)
Time: 19:26:48
(UTC+00:00)

Intercosmos 25 Rocket - Pass Details

Date: 11 February 2026
Orbit: 435 x 2957 km, 82.6° (Epoch: 10 March)

Event Time Altitude Azimuth Distance (km) Brightness Sun altitude
Rises 13:42:30 0° 350° (N) 2,607 6.6 -16.1°
Reaches altitude 10° 13:44:41 10° 348° (NNW) 1,609 5.5 -15.7°
Maximum altitude 13:47:55 70° 264° (W) 466 2.7 -15.0°
Drops below altitude 10° 13:51:09 10° 180° (S) 1,601 5.8 -14.4°
Sets 13:53:19 0° 178° (S) 2,591 6.9 -14.0°
